Waarnemingen

Advertentie
Mijn weer
Le Luc, Frankrijk (7675): temperatuur & dauwpunt: 21.02.2020 06:00:00 - 27.02.2020 06:00:00 (CET)Le Luc, Frankrijk (7675): temperatuur 5cm: 21.02.2020 06:00:00 - 27.02.2020 06:00:00 (CET)Le Luc, Frankrijk (7675): windsnelheid & windstoten: 21.02.2020 06:00:00 - 27.02.2020 06:00:00 (CET)Le Luc, Frankrijk (7675): windrichting: 21.02.2020 06:00:00 - 27.02.2020 06:00:00 (CET)Le Luc, Frankrijk (7675): luchtdruk: 21.02.2020 06:00:00 - 27.02.2020 06:00:00 (CET)Le Luc, Frankrijk (7675): zicht: 21.02.2020 06:00:00 - 27.02.2020 06:00:00 (CET)Le Luc, Frankrijk (7675): Zonneschijnduur: 21.02.2020 06:00:00 - 27.02.2020 06:00:00 (CET)Le Luc, Frankrijk (7675): neerslag: 21.02.2020 06:00:00 - 27.02.2020 06:00:00 (CET)
Datum & Tijd tt [°C] td [°C] tt 5cm [°C] ff [km/u] ff [kn] fx [km/u] fx [kn] dd ppp [hPa] vv [km] sd [min] rr [mm]
27.02.2020 06:00:00 5,3 -4,8 3,3 7 4 20 11 ZW 1014,7 50 0 0,0
27.02.2020 05:00:00 6,1 -5,6 4,6 14 8 27 14 W 1014,1 50 0 0,0
27.02.2020 04:00:00 6,4 -5,3 4,9 18 10 37 20 WZW 1014,3 50 0 0,0
27.02.2020 03:00:00 6,6 -5,4 5,2 18 10 29 16 W 1014,7 50 0 0,0
27.02.2020 02:00:00 7,2 -5,9 5,2 18 10 27 15 W 1014,9 50 0 0,0
27.02.2020 01:00:00 7,3 -6,1 5,2 13 7 29 16 W 1014,6 50 0 0,0
27.02.2020 00:00:00 7,5 -6,6 5,1 9 5 48 26 WNW 1014,5 50 0 0,0
26.02.2020 23:00:00 8,1 -6,8 6,9 26 14 53 29 NW 1013,9 50 0 0,0
26.02.2020 22:00:00 8,2 -6,4 7,3 30 16 60 33 WNW 1013,8 50 0 0,0
26.02.2020 21:00:00 8,7 -6,7 7,7 32 17 58 31 W 1013,1 50 0 0,0
26.02.2020 20:00:00 9,0 -6,8 7,6 33 18 55 30 WNW 1012,9 50 0 0,0
26.02.2020 19:00:00 8,8 -5,1 7,5 21 12 74 40 WNW 1012,4 50 0 0,0
26.02.2020 18:00:00 10,1 -5,9 9,5 41 22 69 37 WNW 1010,7 50 50 0,0
26.02.2020 17:00:00 10,7 -5,4 11,6 42 23 71 38 WNW 1010,2 50 49 0,0
26.02.2020 16:00:00 11,4 -7,0 11,5 52 28 89 48 NW 1009,2 50 51 0,0
26.02.2020 15:00:00 13,0 -5,6 8,4 44 24 93 50 WNW 1008,1 20 48 0,0
26.02.2020 14:00:00 11,6 -5,0 12,3 55 30 89 48 W 1008,3 20 49 0,0
26.02.2020 13:00:00 12,5 -5,5 14,4 44 24 82 44 W 1008,2 20 51 0,0
26.02.2020 12:00:00 12,5 -0,8 12,8 42 23 76 41 WNW 1008,5 20 56 0,0
26.02.2020 11:00:00 12,8 -0,5 14,1 39 21 68 37 W 1007,7 20 55 0,0
26.02.2020 10:00:00 11,9 0,0 11,3 33 18 60 32 W 1007,6 20 60 0,0
26.02.2020 09:00:00 10,9 0,3 10,9 23 13 42 23 W 1008,0 20 58 0,0
26.02.2020 08:00:00 10,2 1,0 7,9 24 13 44 24 WZW 1008,1 20 19 0,0
26.02.2020 07:00:00 9,0 2,1 8,0 29 16 45 24 WZW 1007,6 20 0 0,0
26.02.2020 06:00:00 9,5 1,9 8,3 27 14 48 26 WZW 1007,8 20 0 0,0
26.02.2020 05:00:00 10,1 0,7 9,1 32 17 49 26 WZW 1007,9 20 0 0,0
26.02.2020 04:00:00 11,3 -0,2 10,1 31 17 60 33 W 1007,7 20 0 0,0
26.02.2020 03:00:00 11,5 0,0 10,3 40 22 61 33 W 1007,8 20 0 0,0
26.02.2020 02:00:00 11,7 3,2 10,3 36 20 55 30 W 1007,5 20 0 0,0
26.02.2020 01:00:00 11,7 4,9 10,5 24 13 45 25 W 1007,7 20 0 0,0
26.02.2020 00:00:00 12,4 6,4 11,0 30 16 52 28 W 1007,9 20 0 0,0
25.02.2020 23:00:00 12,5 5,9 11,2 26 14 42 23 WZW 1008,8 20 0 0,0
25.02.2020 22:00:00 12,9 5,3 11,7 26 14 53 29 WZW 1009,0 20 0 0,0
25.02.2020 21:00:00 13,0 5,6 12,0 30 16 53 28 W 1009,0 20 0 0,0
25.02.2020 20:00:00 13,5 5,4 12,6 38 20 57 31 W 1008,7 20 0 0,0
25.02.2020 19:00:00 14,5 4,8 13,5 31 17 46 25 W 1008,4 20 0 0,0
25.02.2020 18:00:00 15,9 4,0 15,1 20 11 46 25 WZW 1007,9 20 23 0,0
25.02.2020 17:00:00 16,5 2,8 16,4 25 14 44 24 W 1008,0 20 0 0,0
25.02.2020 16:00:00 17,1 1,5 17,3 16 9 45 25 W 1008,6 20 0 0,0
25.02.2020 15:00:00 17,6 1,1 19,2 24 13 45 24 WNW 1009,3 20 38 0,0
25.02.2020 14:00:00 18,1 -0,2 19,1 25 13 51 27 W 1009,8 20 22 0,0
25.02.2020 13:00:00 18,2 2,5 19,6 38 20 53 29 NW 1010,7 20 54 0,0
25.02.2020 12:00:00 20,0 -1,8 24,2 22 12 33 18 W 1011,0 20 60 0,0
25.02.2020 11:00:00 17,3 4,3 18,7 2 1 13 7 OZO 1011,9 20 60 0,0
25.02.2020 10:00:00 12,8 6,2 7,6 11 6 18 10 WZW 1012,8 20 60 0,0
25.02.2020 09:00:00 6,2 6,2 5,0 4 2 15 8 ZW 1013,8 11 22 0,0
25.02.2020 08:00:00 4,8 4,7 4,7 5 3 8 4 W 1014,0 0,3 0 0,0
25.02.2020 07:00:00 6,2 6,1 6,1 3 2 9 5 W 1014,3 0,2 0 0,0
25.02.2020 06:00:00 7,1 7,0 7,0 6 3 9 5 WNW 1014,6 0,2 0 0,0
25.02.2020 05:00:00 7,7 7,6 7,5 3 2 8 5 WNW 1014,9 0,9 0 0,0
25.02.2020 04:00:00 7,9 7,8 7,7 5 3 10 5 NNW 1015,4 0,8 0 0,0
25.02.2020 03:00:00 8,5 8,4 8,4 4 2 8 5 ONO 1015,6 0,3 0 0,0
25.02.2020 02:00:00 8,8 8,5 8,6 3 2 9 5 WZW 1016,5 0,3 0 0,0
25.02.2020 01:00:00 9,0 8,5 8,6 2 1 4 2 Z 1017,4 0,3 0 0,0
25.02.2020 00:00:00 8,9 8,4 8,1 0 0 3 2 N 1018,2 0,5 0 0,0
24.02.2020 23:00:00 8,4 7,8 5,2 0 0 3 1 N 1018,6 9 0 0,0
24.02.2020 22:00:00 8,0 6,9 4,9 0 0 5 3 N 1018,8 12 0 0,0
24.02.2020 21:00:00 9,9 8,2 6,6 2 1 10 5 NW 1018,9 15 0 0,0
24.02.2020 20:00:00 10,9 9,3 8,9 4 2 15 8 NNW 1018,8 15 0 0,0
24.02.2020 19:00:00 12,4 10,1 10,2 5 3 12 6 NNO 1018,9 18 0 0,0
24.02.2020 18:00:00 14,7 10,9 14,0 9 5 22 12 NO 1018,3 20 54 0,0
24.02.2020 17:00:00 17,2 10,8 18,8 13 7 27 15 NNO 1018,0 20 60 0,0
24.02.2020 16:00:00 19,0 11,1 22,8 14 8 22 12 NNO 1018,2 20 60 0,0
24.02.2020 15:00:00 19,6 10,8 24,1 16 9 24 13 NO 1018,7 20 60 0,0
24.02.2020 14:00:00 20,8 9,4 26,5 13 7 17 9 NO 1019,3 20 60 0,0
24.02.2020 13:00:00 20,5 6,1 24,9 9 5 16 8 NO 1020,3 20 60 0,0
24.02.2020 12:00:00 18,4 6,2 22,8 7 4 13 7 ONO 1021,3 20 60 0,0
24.02.2020 11:00:00 15,4 6,9 18,0 9 5 14 8 NO 1021,9 20 60 0,0
24.02.2020 10:00:00 12,3 6,6 7,7 5 3 7 4 O 1022,2 20 60 0,0
24.02.2020 09:00:00 6,9 5,0 4,1 3 2 10 6 ONO 1022,7 19 60 0,0
24.02.2020 08:00:00 3,4 2,4 0,1 2 1 6 4 W 1022,9 19 17 0,0
24.02.2020 07:00:00 3,3 2,3 0,5 4 2 11 6 OZO 1022,7 15 0 0,0
24.02.2020 06:00:00 3,6 2,4 0,7 0 0 4 2 N 1022,9 17 0 0,0
24.02.2020 05:00:00 4,5 3,3 1,5 0 0 5 3 N 1022,7 16 0 0,0
24.02.2020 04:00:00 6,5 5,3 3,6 3 1 5 3 ZO 1023,0 17 0 0,0
24.02.2020 03:00:00 7,8 6,1 6,5 5 3 18 10 O 1023,5 17 0 0,0
24.02.2020 02:00:00 9,6 6,5 7,9 8 4 14 7 O 1023,8 20 0 0,0
24.02.2020 01:00:00 14,2 2,7 9,4 3 2 26 14 N 1023,8 20 0 0,0
24.02.2020 00:00:00 13,2 2,4 6,4 5 3 8 5 WNW 1024,1 20 0 0,0
23.02.2020 23:00:00 12,6 2,4 7,3 3 2 9 5 NW 1024,8 20 0 0,0
23.02.2020 22:00:00 12,7 3,4 9,6 6 3 9 5 ZW 1025,1 20 0 0,0
23.02.2020 21:00:00 15,3 3,7 11,3 3 1 10 5 W 1025,2 20 0 0,0
23.02.2020 20:00:00 17,4 3,3 12,6 4 2 17 9 ZW 1025,3 20 0 0,0
23.02.2020 19:00:00 18,9 2,7 15,5 8 4 16 9 ZW 1024,9 20 0 0,0
23.02.2020 18:00:00 21,2 0,9 19,0 10 5 39 21 WZW 1024,4 20 52 0,0
23.02.2020 17:00:00 23,1 0,2 23,6 27 14 45 24 W 1024,1 20 60 0,0
23.02.2020 16:00:00 24,3 1,8 27,7 20 11 39 21 W 1024,1 20 60 0,0
23.02.2020 15:00:00 24,0 3,3 26,8 25 14 37 20 W 1024,4 20 60 0,0
23.02.2020 14:00:00 22,9 4,4 25,0 16 9 30 16 W 1025,3 20 60 0,0
23.02.2020 13:00:00 20,8 5,6 23,8 21 11 37 20 W 1026,7 20 60 0,0
23.02.2020 12:00:00 19,0 4,7 20,4 22 12 40 22 WZW 1027,8 20 60 0,0
23.02.2020 11:00:00 16,5 4,8 18,2 20 11 38 20 WZW 1028,8 20 60 0,0
23.02.2020 10:00:00 14,1 5,4 12,3 17 9 29 16 WZW 1029,0 20 60 0,0
23.02.2020 09:00:00 11,0 6,1 6,7 9 5 17 9 WNW 1029,8 20 36 0,0
23.02.2020 08:00:00 7,8 5,6 4,1 2 1 10 5 OZO 1029,7 20 0 0,0
23.02.2020 07:00:00 7,3 5,3 5,0 3 2 18 10 N 1029,6 20 0 0,0
23.02.2020 06:00:00 8,1 5,9 5,5 8 4 24 13 ZW 1029,9 20 0 0,0
23.02.2020 05:00:00 8,5 6,5 6,1 5 3 21 11 ZW 1029,9 20 0 0,0
23.02.2020 04:00:00 9,4 7,0 8,2 16 8 26 14 ZW 1030,0 20 0 0,0
23.02.2020 03:00:00 9,5 7,1 7,8 14 8 21 11 ZW 1030,7 19 0 0,0
23.02.2020 02:00:00 9,6 7,2 8,0 8 4 16 9 ZW 1031,3 19 0 0,0
23.02.2020 01:00:00 10,3 7,7 6,2 11 6 17 9 ZW 1031,9 20 0 0,0
23.02.2020 00:00:00 8,1 7,0 6,2 2 1 12 7 ZO 1032,4 19 0 0,0
22.02.2020 23:00:00 10,2 8,1 5,6 12 6 18 10 ZZW 1032,6 20 0 0,0
22.02.2020 22:00:00 8,7 7,0 6,7 2 1 9 5 ZZW 1032,6 20 0 0,0
22.02.2020 21:00:00 10,5 7,7 8,5 5 3 13 7 ZZW 1032,6 20 0 0,0
22.02.2020 20:00:00 11,9 8,4 10,0 5 3 16 9 W 1032,3 20 0 0,0
22.02.2020 19:00:00 13,1 8,8 11,6 8 4 16 8 ZW 1031,8 20 0 0,0
22.02.2020 18:00:00 15,6 9,0 14,4 8 4 17 9 WZW 1031,3 20 51 0,0
22.02.2020 17:00:00 17,5 9,1 18,8 12 6 17 9 O 1030,5 20 60 0,0
22.02.2020 16:00:00 18,7 8,9 20,5 12 7 21 11 OZO 1030,3 20 57 0,0
22.02.2020 15:00:00 19,3 7,1 24,0 6 3 13 7 O 1030,6 19 60 0,0
22.02.2020 14:00:00 18,7 6,8 24,0 4 2 13 7 ONO 1031,1 20 60 0,0
22.02.2020 13:00:00 18,1 6,9 23,2 3 1 8 4 NW 1031,6 20 60 0,0
22.02.2020 12:00:00 16,1 7,6 19,9 2 1 5 3 ZZW 1032,1 20 60 0,0
22.02.2020 11:00:00 13,0 7,0 15,5 2 1 6 4 ONO 1032,4 20 60 0,0
22.02.2020 10:00:00 9,6 4,6 7,6 0 0 5 3 N 1032,3 20 60 0,0
22.02.2020 09:00:00 6,0 3,7 4,5 3 2 5 3 OZO 1032,0 20 60 0,0
22.02.2020 08:00:00 2,6 1,4 0,6 0 0 5 3 N 1031,6 20 15 0,0
22.02.2020 07:00:00 1,6 0,7 0,0 4 2 7 4 WNW 1030,7 20 0 0,0
22.02.2020 06:00:00 1,7 0,7 -0,3 0 0 4 2 N 1029,9 20 0 0,0
22.02.2020 05:00:00 2,9 1,6 1,0 2 1 6 4 NNW 1029,2 20 0 0,0
22.02.2020 04:00:00 3,7 2,5 2,2 3 2 6 3 WZW 1028,9 20 0 0,0
22.02.2020 03:00:00 3,5 2,5 2,1 0 0 5 3 N 1028,6 20 0 0,0
22.02.2020 02:00:00 4,3 2,6 2,8 0 0 5 3 N 1028,6 20 0 0,0
22.02.2020 01:00:00 4,8 3,6 3,0 0 0 5 3 N 1028,1 20 0 0,0
22.02.2020 00:00:00 5,3 4,1 3,7 3 1 4 2 ZO 1027,8 20 0 0,0
21.02.2020 23:00:00 5,6 4,2 3,5 0 0 5 3 N 1027,4 20 0 0,0
21.02.2020 22:00:00 6,5 5,3 3,4 0 0 3 2 N 1026,9 20 0 0,0
21.02.2020 21:00:00 8,4 6,5 5,1 0 0 6 3 N 1026,1 20 0 0,0
21.02.2020 20:00:00 10,6 8,2 7,5 3 2 8 4 WZW 1025,8 20 0 0,0
21.02.2020 19:00:00 11,3 8,2 9,0 6 3 12 7 NO 1025,4 20 0 0,0
21.02.2020 18:00:00 13,8 8,2 12,9 7 4 13 7 ONO 1024,3 20 50 0,0
21.02.2020 17:00:00 16,0 8,7 17,0 8 4 20 11 OZO 1023,5 20 23 0,0
21.02.2020 16:00:00 18,4 4,2 20,5 8 5 15 8 NO 1023,1 20 49 0,0
21.02.2020 15:00:00 18,5 4,6 22,2 8 4 14 7 NO 1022,9 20 60 0,0
21.02.2020 14:00:00 18,5 4,6 22,5 9 5 19 10 ONO 1022,8 20 60 0,0
21.02.2020 13:00:00 17,5 4,1 20,8 10 6 20 11 O 1023,4 20 60 0,0
21.02.2020 12:00:00 16,4 4,4 20,5 7 4 15 8 O 1023,9 20 60 0,0
21.02.2020 11:00:00 15,2 4,0 18,8 0 0 8 4 N 1024,1 20 60 0,0
21.02.2020 10:00:00 12,3 3,8 11,0 4 2 13 7 NO 1024,4 20 60 0,0
21.02.2020 09:00:00 9,6 2,9 8,2 6 3 17 9 OZO 1024,7 20 56 0,0
21.02.2020 08:00:00 7,7 2,0 3,0 16 9 21 12 W 1024,0 20 13 0,0
21.02.2020 07:00:00 8,7 1,8 6,6 10 5 29 16 WZW 1022,9 20 0 0,0
21.02.2020 06:00:00 8,2 2,4 6,0 15 8 26 14 ZW 1022,5 20 0 0,0

tt = temperatuur
td = dauwpunt
tt 5cm = temperatuur 5cm
ff = windsnelheid
fx = windstoten
dd = windrichting
ppp = luchtdruk
vv = zicht
sd = Zonneschijnduur
rr = neerslag

Weerstations in de omgeving